Regional Weather Roundup
Issued by NWS

Home | Current Version | Previous Version | Text Only | Print | Product List | Glossary Off
Versions: 1 2 3 4 5 6 7 8 9 10 11 12 13 14 15 16 17 18 19 20 21 22 23 24 25 26 27 28 29 30 31 32 33 34 35 36 37 38 39 40 41 42 43 44 45 46 47 48 49 50

000
ASUS45 KBOU 262307
RWRCO

WEATHER ROUNDUP FOR COLORADO
NATIONAL WEATHER SERVICE DENVER/BOULDER CO
500 PM MDT THU MAR 26 2015

NOTE: "FAIR" INDICATES FEW OR NO CLOUDS BELOW 12000 FEET WITH NO
SIGNIFICANT WEATHER AND/OR OBSTRUCTIONS TO VISIBILITY.

COZ001>005-013-030-031-270000-
...NORTHWEST COLORADO...

CITY           SKY/WX    TMP DP  RH WIND       PRES   REMARKS
CRAIG          MOSUNNY   56  25  30 SW6       30.24F
HAYDEN         MOSUNNY   52  21  30 CALM      30.25F
MEEKER         SUNNY     56  24  29 W9        30.26F
MOUNT WERNER   NOT AVBL
STEAMBOAT SPGS MOSUNNY   48  26  41 E3        30.27F
WALDEN         CLOUDY    41  23  48 SW12      30.27S
$$

COZ006>008-011-270000-
...WEST CENTRAL VALLEYS...

CITY           SKY/WX    TMP DP  RH WIND       PRES   REMARKS
GRAND JUNCTION SUNNY     61  19  19 NW6       30.23F
MONTROSE       SUNNY     60  18  19 NW10      30.27F
EAGLE          MOSUNNY   57  21  24 SW18      30.25F
RIFLE          SUNNY     61  22  22 W10       30.21F
DELTA          SUNNY     66  18  15 SW9       30.23F
NUCLA          SUNNY     63  18  17 NW9       30.28F
$$

COZ017>023-064>068-270000-
...SOUTHWEST COLORADO...

CITY           SKY/WX    TMP DP  RH WIND       PRES   REMARKS
DURANGO        SUNNY     60  16  18 SW15G22   30.21F
CORTEZ         SUNNY     66  16  14 NW15G25   30.22F
PAGOSA SPRINGS SUNNY     58  10  15 SW14G20   30.24F
TELLURIDE      SUNNY     49  16  27 NW5G18    30.35S
WOLF CREEK PAS CLOUDY    34  12  40 SW16G24   30.41S WCI  23
$$

COZ009-010-012-014-032>034-037-058>063-270000-
...CENTRAL COLORADO...

CITY           SKY/WX    TMP DP  RH WIND       PRES   REMARKS
ASPEN          MOSUNNY   50  22  33 NW10      30.27S
BUENA VISTA    MOSUNNY   55  16  21 N25G31    30.19S
COPPER MTN     CLOUDY    32  19  59 W18G30    30.36R WCI  20
BERTHOUD PASS  CLOUDY    19  12  73 MISG      30.31S HAZE
COTTONWOOD PAS MOSUNNY   50  14  23 CALM      30.27S
GUNNISON       SUNNY     52  18  25 SW16G25   30.26F
KREMMLING      PTSUNNY   50  19  29 NW14G20   30.28R
LEADVILLE      MOSUNNY   40  17  39 N16G24    30.28R
SALIDA         MOSUNNY   60  13  16 NW12G20   30.24S
SUNLIGHT       SUNNY     39  23  52 CALM      30.41R
WILKERSON PASS PTSUNNY   32  16  51 NW14G25   30.33R WCI  22
$$

COZ069>075-270000-
...SAN LUIS VALLEY/SANGRE DE CRISTO MOUNTAINS...

CITY           SKY/WX    TMP DP  RH WIND       PRES   REMARKS
ALAMOSA        SUNNY     58  11  15 VRB6      30.18F
LA VETA PASS   SUNNY     45  14  29 SW7       30.27S
SAGUACHE       MOSUNNY   55  16  21 N21       30.21S
$$

COZ035-036-038>040-270000-
...NORTHERN COLORADO FRONT RANGE...

CITY           SKY/WX    TMP DP  RH WIND       PRES   REMARKS
DENVER INTL AP PTSUNNY   59  24  26 N7        30.12S
DMNS CITY PARK   N/A     61  21  21 N3G9      30.11S
AURORA         NOT AVBL
FRONT RANGE AP PTSUNNY  N/A N/A N/A MISG        N/A
ERIE MUNI ARPT PTSUNNY   61  19  19 SW3       30.11S
BOULDER MUN AP MOSUNNY   61  23  23 W23G30    30.10S
CENTENNIAL     PTSUNNY   59  23  25 N14       30.12S
BROOMFIELD     PTSUNNY   61  21  21 NW12G18   30.12S
FORT COLLINS   PTSUNNY   61  27  27 NE3       30.11S
LONGMONT       PTSUNNY   66  25  21 E6        30.11S
$$

COZ041-046-047-076>085-087-088-270000-
...PIKES PEAK/PALMER DIVIDE AND SOUTHERN FOOTHILLS...

CITY           SKY/WX    TMP DP  RH WIND       PRES   REMARKS
COLO. SPRINGS  PTSUNNY   56  19  23 W6        30.15S
A. F. ACADEMY  PTSUNNY   55  22  28 NW3       30.15R
ELLICOTT       PTSUNNY  N/A N/A N/A SW3       30.14R
FALCON         PTSUNNY   54  20  26 NW10      30.18R
FORT CARSON    NOT AVBL
LIMON          MOSUNNY   55  22  27 N24       30.13S
MONUMENT HILL  MOSUNNY   52  21  30 N9        30.16R
TRINIDAD       SUNNY     58  17  20 CALM      30.13F
$$

COZ042>045-048>051-090-091-270000-
...NORTHEAST COLORADO...

CITY           SKY/WX    TMP DP  RH WIND       PRES   REMARKS
GREELEY ARPT   CLOUDY    61  25  25 SW6       30.08S
AKRON          CLOUDY    54  25  32 N16G30    30.10S
BURLINGTON     CLOUDY    58  23  26 N21G28    30.10S
WRAY           CLOUDY    58  27  30 N20G26    30.10R
STERLING       CLOUDY    57  28  33 N16G26    30.09S
HOLYOKE        PTSUNNY   59  32  36 N23G29    30.10S
FORT MORGAN    CLOUDY    58  22  24 N21G29    30.10S
$$

COZ086-089-092>099-270000-
...SOUTHEAST COLORADO...

CITY           SKY/WX    TMP DP  RH WIND       PRES   REMARKS
PUEBLO         SUNNY     59  18  20 CALM      30.11S
LA JUNTA       MOSUNNY   63  19  18 W6        30.10F
LAMAR          CLOUDY    63  23  21 N12       30.08F
SPRINGFIELD    NOT AVBL
$$



USA.gov is the U.S. government's official web portal to all federal, state and local government web resources and services.